Vertical_Velocity
-2 1 1 -0 -2 -1 -1 -3 -3 -2 -2 2 1 -1 -1 -4 -1 -4 -3 -1 4 -1
-0 -1 -3 -4 -4 -4 -2 -4 -3 -5 -4 -4 -6 -3 -3 -3 -2 -2 -1 -3 1 2
-3 -2 -3 -4 -3 -2 -2 -3 -2 -5 -5 -5 -5 -5 -4 -2 1 -1 -3 -1 -2 -1
-3 -3 -2 -1 -3 -2 -2 -3 -3 -5 -4 -2 -2 -2 -2 -4 -7 -2 -1 -4 3 4
-2 -2 -1 -1 -0 0 -2 -2 -1 -1 -1 -2 -0 -2 -1 -4 -4 -1 -2 -3 -5 3
-3 -4 -2 -2 -1 -0 -1 -2 -1 1 -1 -9 -4 -5 0 -1 -1 -3 -3 -1 -0 -1
-3 -2 -2 -3 -3 -3 -3 -1 -1 -2 -3 -3 1 -1 0 -1 -4 -1 -3 -3 -2 1
-2 -1 -2 -2 -3 -2 -3 -3 -2 -3 -4 -4 -3 -0 2 -2 -1 -1 -2 -4 -4 -1
1 -2 -1 -1 -1 -3 -2 -2 -2 -3 -3 -0 -2 4 4 -0 -3 -2 1 -0 6 11
-0 -1 -1 1 -1 -2 -2 1 -0 -2 -4 -1 -0 -1 1 1 -2 -3 -1 -3 6 12
1 -1 -1 -0 0 -0 0 2 1 -0 -1 2 -2 -2 0 -2 1 0 -1 -3 -2 -3
-1 -3 2 -2 -2 1 1 -1 -3 -3 -0 2 -1 -2 -1 -2 -1 2 -1 -2 -2 -0
-1 -1 0 -1 0 1 1 -0 -1 1 -1 0 3 -1 -1 -1 -1 1 -0 -2 3 -3
-3 -3 1 -1 -0 1 -1 -3 -1 -1 -2 0 1 -2 -1 -0 0 3 2 -1 -0 5
Height
5880 5875 5871 5866 5861 5857 5852 5846 5840 5833 5828 5823 5819 5817 5815 5812 5810 5808 5805 5804 5803 5803
5873 5868 5863 5859 5854 5851 5845 5839 5834 5828 5821 5816 5813 5809 5806 5803 5799 5795 5792 5791 5790 5790
5866 5861 5856 5851 5847 5842 5837 5832 5826 5820 5814 5808 5803 5799 5795 5792 5787 5782 5779 5777 5776 5777
5858 5853 5848 5844 5839 5833 5828 5823 5817 5811 5804 5799 5794 5789 5785 5780 5775 5770 5767 5765 5765 5765
5850 5845 5840 5835 5830 5824 5819 5813 5807 5801 5795 5790 5786 5779 5773 5769 5764 5759 5756 5753 5751 5750
5841 5836 5831 5826 5821 5816 5809 5802 5796 5790 5784 5779 5774 5769 5764 5758 5753 5748 5744 5740 5737 5736
5832 5827 5821 5816 5810 5804 5798 5792 5785 5779 5773 5769 5763 5759 5755 5748 5743 5738 5733 5729 5724 5724
5822 5817 5811 5805 5799 5793 5787 5782 5776 5769 5764 5759 5753 5749 5745 5739 5734 5728 5723 5717 5713 5711
5812 5806 5801 5795 5789 5782 5776 5771 5765 5760 5754 5747 5741 5738 5735 5729 5725 5719 5714 5708 5702 5700
5803 5797 5792 5786 5779 5773 5767 5760 5754 5748 5743 5737 5732 5730 5726 5720 5716 5711 5705 5699 5693 5691
5794 5789 5782 5776 5769 5763 5756 5750 5744 5737 5732 5727 5723 5721 5718 5713 5709 5704 5697 5692 5686 5681
5785 5779 5773 5765 5759 5752 5746 5739 5733 5728 5723 5718 5714 5712 5709 5706 5703 5697 5691 5685 5678 5673
5775 5769 5763 5756 5749 5742 5735 5730 5724 5718 5714 5712 5709 5706 5703 5700 5696 5690 5685 5679 5674 5667
5764 5759 5753 5746 5739 5733 5726 5721 5716 5712 5707 5705 5703 5700 5697 5694 5690 5685 5680 5674 5668 5662